IRIDIUM 33 DEB, 34652

Orbit data source: Space-Track

IRIDIUM 33 DEB, 34652 is space debris in LEO originally from a launch on Sun, 14 Sep 1997 UTC launched from the Tyuratam Missile And Space Complex (TTMTR). The debris from Iridium 33, an American commercial communications satellite, has been tracked extensively since its accidental collision with the defunct Russian satellite Cosmos 2251 in 2009. This event, occurring at high speed in low Earth orbit (LEO), generated thousands of pieces of space debris, significantly increasing the risk of further collisions. The Iridium 33 debris cloud has impacted space traffic management and orbital debris mitigation strategies, making it a subject of ongoing study in space situational awareness.

Loading next visibility...
Identifier
34652, 1997-051KD
Orbit
LEO
Country
Flag of USUS
Related business
Manufacturer
Unknown
Mission
Spacecraft
Bus & Motor
Unknown
Mass
Unknown
Launch date (UTC)
1997-09-14 (28 years ago)
Launch vehicle
Unknown
Launch site
Tyuratam Missile And Space Complex (TTMTR)
Object type
Payload
Rocket body
Debris
Shape & HBR
Unknown shape, 0.1 m
Radar Cross Section
Small (<0.1 m²)

Expand to show TLE details & history
Last TLE update: 7 hours ago

TLE from 7 hours ago
0 IRIDIUM 33 DEB
1 34652U 97051KD  26038.22102271  .00005975  00000-0  11615-2 0  9990
2 34652  86.3335 314.8524 0029937 100.5806  51.2645 14.62712360893091
Epoch: 2026-02-07T05:18Z
TLE epoch observation values (Epoch: 2026-02-07T05:18:16.362Z)
Latitude
27.86631°
Longitude
-83.99453°
Altitude
674.816 km
Speed
7.529 km/s
True Right ascension
08h 51m 41s
True Declination
27° 43' 22"
Sunlit
Object was in full shadow at epoch
Visualization orbit readout
Latitude
Unknown
Longitude
Unknown
Altitude
Unknown
Speed
Unknown
Apparent Right ascension
Unknown
Apparent Declination
Unknown
Sunlit
N/A
Visualization observer readout
Local Sidereal Time
14:40:08
Azimuth
Unknown
Elevation
Unknown
Doppler factor
Unknown
Orbital elements
Apogee altitude
702.489 km
Perigee altitude
660.221 km
Semi-major axis
7,059.492 km
Eccentricity
0.00299
Inclination
86.3335°
RAAN
314.8524°
Arg. of periapsis
100.5806°
True anomaly
51.53272°
Mean anomaly
51.2645°
Eccentric anomaly
51.39855°
Mean motion
3.65917 °/min
Orbital period
98.38 mins
BSTAR
0.0011615
Loading maneuver chart data...
Computing Atmospheric mass density...
Loading historical data...
Loading historical data...
Loading historical data...
Loading historical data...
Loading historical data...
Loading historical data...
Loading historical data...

Documentation

Showing up to 5 results
|